Welcome to the New NWS' Forecast!
Most changes are behind the scenes, but click here for differences you might notice.

Regional Weather Roundup (RWR)

Issued by National Weather Service (NWS)

                            
000
ASUS46 KSEW 152210
RWRWA 

WASHINGTON REGIONAL WEATHER ROUNDUP
NATIONAL WEATHER SERVICE SEATTLE WA
200 PM PST THU NOV 15 2018

NOTE:"FAIR" INDICATES FEW OR NO CLOUDS BELOW 12,000 FEET WITH NO 
SIGNIFICANT WEATHER AND/OR OBSTRUCTIONS TO VISIBILITY.

WAZ507-509-555>559-152300-
SEATTLE, TACOMA, EVERETT, AND VICINITY
  
CITY           SKY/WX    TMP DP  RH WIND       PRES   REMARKS
EVERETT        CLOUDY    53  45  74 SE7       30.27F                  
BOEING FIELD   PTSUNNY   55  44  66 SW5       30.28F                  
RENTON         PTSUNNY   56  45  66 SW3       30.27F                  
SEATAC AIRPORT PTSUNNY   55  45  68 W5        30.28F                  
JBLM-MCCHORD   CLOUDY    56  51  84 SW8       30.28F                  
PUYALLUP       CLOUDY    55  48  76 CALM      30.28F                  
BREMERTON      CLOUDY    52  47  83 S5        30.27F                  
JBLM-FT LEWIS  CLOUDY    55  51  85 S7        30.27F                  
TACOMA NARROWS PTSUNNY   52  45  77 S8        30.28F                  
$$
 
WAZ001-503-506-510-514-515-152300-
NORTH INTERIOR
  
CITY           SKY/WX    TMP DP  RH WIND       PRES   REMARKS
BELLINGHAM     CLOUDY    53  46  77 S7        30.23F                  
FRIDAY HARBOR  CLOUDY    52  47  83 SE6       30.26F                  
EASTSOUND      CLOUDY    52  48  87 S13       30.23F                  
PORT ANGELES   CLOUDY    50  47  89 CALM      30.26R                  
EDIZ HOOK      CLOUDY    49  47  92 CALM      30.26R                  
PORT TOWNSEND  CLOUDY    52  48  87 SE6       30.25F                  
NAS WHIDBEY    LGT RAIN  55  47  74 SE18      30.29F                  
ARLINGTON      CLOUDY    54  48  80 SE7       30.28F                  
BURLINGTON     CLOUDY    52  50  93 SE5       30.26F                  
$$
 
WAZ020-022-039-040-504-511-512-152300-
SOUTHWEST INTERIOR
  
CITY           SKY/WX    TMP DP  RH WIND       PRES   REMARKS
SHELTON        CLOUDY    55  47  74 SW10      30.25F                  
OLYMPIA        MOSUNNY   55  46  71 SW8       30.29F                  
CHEHALIS       FAIR      57  46  67 CALM      30.29F                  
KELSO          PTSUNNY   49  46  90 NW3       30.31F FOG              
VANCOUVER      SUNNY     53  45  74 SW6       30.29F                  
SCAPPOOSE, OR  SUNNY     57  47  69 S5        30.28F                  
PORTLAND, OR   MOSUNNY   55  46  71 CALM      30.29F                  
$$
 
WAZ021-516-517-152300-
WASHINGTON COAST
  
CITY           SKY/WX    TMP DP  RH WIND       PRES   REMARKS
FORKS          LGT RAIN  51  49  92 S7        30.26F FOG              
HOQUIAM        CLOUDY    54  50  86 SW7       30.30F                  
ASTORIA, OR    SUNNY     55  47  74 CALM      30.29F                  
$$
 
WAZ019-023-024-040-567>569-152300-
CASCADE MOUNTAINS AND COLUMBIA GORGE
  
CITY           SKY/WX    TMP DP  RH WIND       PRES   REMARKS
STAMPEDE PASS  NOT AVBL                                               
TROUTDALE, OR  CLOUDY    50  45  83 CALM      30.30F                  
HOOD RIVER, OR CLEAR     50  41  71 CALM      30.24F                  
THE DALLES, OR SUNNY     49  41  74 CALM      30.26F                  
$$

WAZ026-027-041>044-520-521-152300-
EAST SLOPES
  
CITY           SKY/WX    TMP DP  RH WIND       PRES   REMARKS
OMAK           PTSUNNY   36  32  85 S3        30.24F                  
WENATCHEE      SUNNY     41  34  76 E5        30.22F                  
ELLENSBURG     SUNNY     58  36  43 SW6       30.19F                  
YAKIMA         SUNNY     50  35  56 SE9       30.23F                  
SUNNYSIDE ARPT PTCLDY    40  35  81 CALM      30.26F HAZE             
YAKIMA TC      FAIR      51  35  55 W6        30.20F                  
$$

WAZ028-034-035-152300-
COLUMBIA BASIN
  
CITY           SKY/WX    TMP DP  RH WIND       PRES   REMARKS
EPHRATA        SUNNY     45  34  65 CALM      30.23F                  
MOSES LAKE     SUNNY     44  32  62 S3        30.24F                  
PASCO          MOSUNNY   44  35  70 CALM      30.28F HAZE             
RICHLAND ARPT  PTCLDY    42  37  83 W5        30.28F HAZE             
HERMISTON, OR  SUNNY     52  41  66 CALM      30.24F                  
$$

WAZ036>038-152300-
NORTHEAST WASHINGTON
  
CITY           SKY/WX    TMP DP  RH WIND       PRES   REMARKS
SPOKANE GEIGER CLOUDY    42  38  85 S10       30.21F                  
SPOKANE FELTS  CLOUDY    41  36  82 SW6       30.22F HAZE             
FAIRCHILD AFB  PTSUNNY   41  41 100 S8        30.20F                  
COEURDALENE,ID CLOUDY    45  38  76 W5        30.21F                  
DEER PARK      FOG       37  36  96 CALM      30.23F VSB 1/4          
$$

WAZ029>033-152300-
SOUTHEAST WASHINGTON
  
CITY           SKY/WX    TMP DP  RH WIND       PRES   REMARKS
PULLMAN        PTSUNNY   51  38  60 W7        30.24F                  
LEWISTON, ID   MOSUNNY   54  35  48 CALM      30.22F                  
WALLA WALLA    MOSUNNY   47  36  65 NW5       30.24F                  
PENDLETON, OR  SUNNY     53  41  63 NW6       30.23F                  
$$